Home   Weather   Celje   Past weeks

Flag for Slovenia Past Weather in Celje, Slovenia — Yesterday and Last 2 Weeks

Now
49 °F

Cool.


Feels Like: 49 °F
Forecast: 53 / 64 °F
Wind: 2 mph from Southwest

Location: Celje

Current Time: Apr 25, 2017 at 5:21:09 am

Latest Report: Apr 25, 2017 at 4:00 am


Visibility: N/A

Pressure: 29.95 "Hg

Humidity: 72%

Dew Point: 41 °F

Location of CeljeLocation

Past Weather in Celje — Graph

°F

Celje Temperature Yesterday

Maximum temperature yesterday: 62 °F (at 5:00 pm)
Minimum temperature yesterday: 40 °F (at 2:00 am)
Average temperature yesterday: 50 °F

High & Low Weather Summary for the Past Weeks

 TemperatureHumidityPressure
High78 °F (Apr 10, 3:00 pm)99% (Apr 17, 8:00 am)30.50 "Hg (Apr 17, 8:00 am)
Low25 °F (Apr 21, 6:00 am)25% (Apr 21, 4:00 pm)29.79 "Hg (Apr 13, 3:00 pm)
Average50 °F67%30.08 "Hg
* Reported Apr 10 3:00 am — Apr 25 3:00 am, Celje, Weather by CustomWeather, © 2017

Note: Actual official high and low records may vary slightly from our data, if they occured in-between our weather recording intervals... More about our weather records

Advertising

Celje Weather History for the Previous 24 Hours

Scroll right to see more
 ConditionsComfort  
Time TempWeatherWind HumidityBarometerVisibility
3:00 am
Tue, Apr 25
51 °FCool.2 mph70%29.96 "HgN/A
2:00 am53 °FCool.5 mph68%29.97 "HgN/A
1:00 am55 °FCool.6 mph66%29.99 "HgN/A
11:00 pm
Mon, Apr 24
54 °FCool.7 mph72%30.01 "HgN/A
10:00 pm51 °FCool.5 mph80%30.02 "HgN/A
9:00 pm49 °FCool.2 mph82%30.03 "HgN/A
8:00 pm54 °FCool.3 mph70%30.01 "HgN/A
7:00 pm56 °FCool.5 mph62%30.02 "HgN/A
6:00 pm58 °FRefreshingly cool.6 mph58%30.03 "HgN/A
5:00 pm62 °FRefreshingly cool.6 mph52%30.03 "HgN/A
3:00 pm60 °FRefreshingly cool.7 mph52%30.06 "HgN/A
2:00 pm59 °FRefreshingly cool.6 mph49%30.08 "HgN/A
1:00 pm58 °FRefreshingly cool.1 mph48%30.10 "HgN/A
12:00 pm58 °FRefreshingly cool.2 mph50%30.13 "HgN/A
11:00 am55 °FCool.3 mph52%30.16 "HgN/A
10:00 am51 °FCool.2 mph58%30.19 "HgN/A
9:00 am48 °FCool.2 mph75%30.20 "HgN/A
8:00 am44 °FPartly sunny.1 mph88%30.22 "Hg12 mi
7:00 am41 °FQuite cool.1 mph94%30.22 "HgN/A
6:00 am41 °FQuite cool.1 mph93%30.22 "HgN/A
5:00 am40 °FQuite cool.1 mph94%30.22 "HgN/A
Weather by CustomWeather, © 2017

See weather overviewHow to use our weather pages